Location: Biltmore Gardens
(41.6070°N, 83.4666°W)
Time: 14:25:00
(UTC+00:00)

Cosmos 2123 Rocket - Pass Details

Date: 14 July 2020
Orbit: 960 x 993 km, 82.9° (Epoch: 04 August)

Event Time Altitude Azimuth Distance (km) Brightness Sun altitude
Rises 05:58:43 0° 349° (N) 3,657 8.2 -26.6°
Reaches altitude 10° 06:01:15 10° 346° (NNW) 2,705 7.2 -26.6°
Maximum altitude 06:07:20 63° 267° (W) 1,063 4.0 -26.5°
Enters shadow 06:08:02 59° 234° (SW) 1,100 4.0 -26.5°
